Regional Weather Roundup
Issued by NWS

Home | Current Version | Previous Version | Text Only | Print | Product List | Glossary Off
Versions: 1 2 3 4 5 6 7 8 9 10 11 12 13 14 15 16 17 18 19 20 21 22 23 24 25 26 27 28 29 30 31 32 33 34 35 36 37 38 39 40 41 42 43 44 45 46 47 48 49 50

000
ASUS43 KDTX 240910
RWRMI
MICHIGAN HOURLY REGIONAL WEATHER ROUNDUP
NATIONAL WEATHER SERVICE DETROIT/PONTIAC MI
500 AM EDT TUE APR 24 2018

NOTE: "FAIR" INDICATES FEW OR NO CLOUDS BELOW 12,000 FEET WITH NO
SIGNIFICANT WEATHER AND/OR OBSTRUCTION TO VISIBILITY.

MIZ047>049-052>055-059>063-066>070-074>076-081>083-241000-
SOUTHEAST LOWER MICHIGAN

CITY           SKY/WX    TMP DP  RH WIND       PRES   REMARKS
ADRIAN         CLOUDY    54  45  71 E6        30.11F
ALMA           FAIR      52  48  87 S3        30.12F
ANN ARBOR      CLOUDY    52  49  89 E7        30.12S
BAD AXE        CLOUDY    56  42  59 SW5       30.14F
CARO           CLOUDY    55  43  64 CALM      30.12F
DETROIT CITY   CLOUDY    54  44  69 CALM      30.14S
DETROIT        CLOUDY    56  44  64 S12       30.14S HAZE
FLINT          CLOUDY    52  44  74 CALM      30.13S
GROSSE ILE     CLOUDY    52  46  79 CALM      30.13S
HILLSDALE      LGT RAIN  50  46  87 SE6       30.08F
HOWELL         CLOUDY    53  46  75 E5        30.11F

CITY           SKY/WX    TMP DP  RH WIND       PRES   REMARKS
JACKSON        CLOUDY    54  46  74 E8        30.10S
LAMBERTVILLE   CLOUDY    55  44  66 E6        30.10F
LANSING        CLOUDY    54  47  77 E3        30.12S
LAPEER         CLOUDY    51  44  76 CALM      30.14S
MASON          LGT RAIN  53  46  76 NE3       30.11S
MONROE         LGT RAIN  52  46  82 E6        30.12S
MT. CLEMENS    CLOUDY    49  49 100 E5        30.12F
PONTIAC        CLOUDY    54  45  71 CALM      30.12S
PORT HOPE        N/A     48  43  82 CALM      30.11F
PORT HURON     CLOUDY    50  43  76 CALM      30.15S
TRI CITIES     CLOUDY    53  45  74 S7        30.13F
MIDLAND        MOCLDY    47  40  76 CALM      30.12F
TROY           CLOUDY    56  43  61 CALM      30.15S
SAGINAW HB     CLOUDY    54  45  71 SW3       30.12F
$$
MIZ043>046-050>051-056>058-064>065-071>073-077>080-241000-
SOUTHWEST LOWER MICHIGAN

CITY           SKY/WX    TMP DP  RH WIND       PRES   REMARKS
BATTLE CREEK   CLOUDY    53  47  79 E5        30.09S
BENTON HARBOR  CLOUDY    53  46  77 E5        30.07S
BIG RAPIDS     CLOUDY    46  39  75 S6        30.09F
COLDWATER      CLOUDY    53  48  83 SE7       30.08S
FREMONT        CLOUDY    54  42  63 S3        30.08F
HOLLAND        LGT RAIN  53  47  79 SE6       30.09S
GRAND RAPIDS   LGT RAIN  54  46  74 MISG      30.10S
IONIA          CLOUDY    53  46  79 SE3       30.10F
KALAMAZOO      CLOUDY    53  46  77 E3        30.09S
LUDINGTON      MOCLDY    44  36  73 CALM      30.08F
MARSHALL       CLOUDY    51  48  89 CALM      30.09S
MOUNT PLEASANT MOCLDY    50  42  75 CALM      30.11S
MUSKEGON       MOCLDY    52  44  74 SE5       30.09F
SOUTH HAVEN    CLOUDY    54  47  76 CALM      30.08S
$$
MIZ016>042-241000-
NORTHERN LOWER MICHIGAN

CITY           SKY/WX    TMP DP  RH WIND       PRES   REMARKS
ALPENA         FAIR      34  30  85 CALM      30.12F
BEAVER ISLAND  FAIR      34  30  86 CALM      30.12R
CADILLAC       FAIR      41  32  71 CALM      30.09F
CHARLEVOIX     FAIR      37  30  76 CALM      30.14S
FRANKFORT      FAIR      39  33  77 CALM      30.10S
GAYLORD        FAIR      41  29  62 CALM      30.11S
HARBOR SPRINGS FAIR      37  30  78 NE6       30.12S WCI  32
HOUGHTON LAKE  FAIR      41  34  76 E3        30.11F
MANISTEE       FAIR      42  34  73 E3        30.09F
OSCODA         FAIR      37  30  74 CALM      30.12S
PELLSTON       FAIR      30  26  85 CALM      30.12F
ROGERS CITY    FAIR      32  29  86 CALM      30.13S
TRAVERSE CITY  FAIR      38  33  82 CALM      30.09F
$$
MIZ007>008-015-241000-
EASTERN UPPER MICHIGAN

CITY           SKY/WX    TMP DP  RH WIND       PRES   REMARKS
KINROSS        FAIR      37  23  56 SE8       30.11F WCI  31
MACKINAC ISLAN FAIR      39  29  67 SE8       30.10F WCI  34
NEWBERRY       FAIR      39  25  56 CALM      30.10F
S. S. MARIE    FAIR      38  25  59 NE3       30.11F
MUNISING         N/A     36  27  69 S3        30.09F
$$
MIZ004>006-011>014-085-241000-
CENTRAL UPPER MICHIGAN

CITY           SKY/WX    TMP DP  RH WIND       PRES   REMARKS
MANISTIQUE     FAIR      30  26  85 NW5       30.10F WCI  25
ESCANABA       FAIR      27  25  92 CALM      30.11F
MENOMINEE      FAIR      31  28  89 CALM      30.12S
SAWYER-GWINN   FAIR      35  23  61 CALM      30.10F
$$
MIZ001>003-009>011-084-241000-
WESTERN UPPER MICHIGAN

CITY           SKY/WX    TMP DP  RH WIND       PRES   REMARKS
IRON MOUNTAIN  FAIR      32  26  78 NW3       30.09F
HOUGHTON       FAIR      46  28  49 N15       30.10S
COPPER HARBOR    N/A     41  31  67 N8        30.12S
IRONWOOD       FAIR      34  28  79 CALM      30.13R
$$

ABBREVIATIONS USED IN REMARKS
   TC - TEMPERATURE IN CELSIUS
  WCI - WIND CHILL INDEX
   HX - HEAT INDEX
  VSB - VISIBILITY




USA.gov is the U.S. government's official web portal to all federal, state and local government web resources and services.